When you browse on this site, cookies collect data to enhance your experience and personalize the content and advertising you see.
Visit our Privacy Policy to learn more. By continuing to use the site, you agree to this use of cookies and data.
  • In Hungary
  • List of Countries
  • For 7 days
  • Water Temperature
  • Weather Map
  • News
  • Weather Widgets
  • user-avatar
    Login

    Hourly Weather Novye Usy

    Today, 24 August, Saturday

    Time Temperature Precipitation Wind Pressure Humidity
    00:00 +15°C° 0 mm 2 mps 754 mmHg 87%
    01:00 +14°C° 0 mm 1 mps 754 mmHg 88%
    02:00 +14°C° 0 mm 1 mps 754 mmHg 88%
    03:00 +13°C° 0 mm 1 mps 755 mmHg 87%
    04:00 +13°C° 0 mm 1 mps 755 mmHg 87%
    05:00 +14°C° 0 mm 1 mps 755 mmHg 85%
    06:00 +14°C° 0 mm 1 mps 755 mmHg 84%
    07:00 +15°C° 0 mm 1 mps 755 mmHg 82%
    08:00 +16°C° 0 mm 1 mps 755 mmHg 76%
    09:00 +18°C° 0 mm 1 mps 755 mmHg 71%
    10:00 +20°C° 0 mm 1 mps 755 mmHg 65%
    11:00 +20°C° 0 mm 2 mps 755 mmHg 62%
    12:00 +20°C° 0 mm 2 mps 755 mmHg 58%
    13:00 +21°C° 0 mm 2 mps 754 mmHg 54%
    14:00 +21°C° 0 mm 2 mps 754 mmHg 54%
    15:00 +21°C° 0 mm 2 mps 754 mmHg 53%
    16:00 +23°C° 0 mm 2 mps 754 mmHg 53%
    17:00 +20°C° 0 mm 2 mps 753 mmHg 58%
    18:00 +20°C° 0 mm 1 mps 753 mmHg 64%
    19:00 +19°C° 0 mm 1 mps 753 mmHg 69%
    20:00 +18°C° 0 mm 1 mps 753 mmHg 71%
    21:00 +16°C° 0 mm 1 mps 752 mmHg 74%
    22:00 +15°C° 0 mm 1 mps 752 mmHg 76%
    23:00 +15°C° 0 mm 1 mps 752 mmHg 77%

    Tomorrow, 25 August, Sunday

    Time Temperature Precipitation Wind Pressure Humidity
    00:00 +14°C° 0 mm 1 mps 751 mmHg 78%
    01:00 +14°C° 0 mm 2 mps 751 mmHg 79%
    02:00 +14°C° 0 mm 2 mps 751 mmHg 81%
    03:00 +14°C° 0 mm 2 mps 751 mmHg 82%
    04:00 +13°C° 0 mm 2 mps 750 mmHg 83%
    05:00 +13°C° 0 mm 3 mps 750 mmHg 83%
    06:00 +13°C° 0 mm 3 mps 749 mmHg 82%
    07:00 +14°C° 0 mm 3 mps 749 mmHg 81%
    08:00 +15°C° 0 mm 4 mps 749 mmHg 77%
    09:00 +18°C° 0 mm 4 mps 749 mmHg 72%
    10:00 +19°C° 0 mm 5 mps 748 mmHg 68%
    11:00 +20°C° 0.1 mm 5 mps 748 mmHg 67%
    12:00 +20°C° 0.1 mm 6 mps 748 mmHg 66%
    13:00 +21°C° 0.1 mm 6 mps 747 mmHg 65%
    14:00 +21°C° 0.3 mm 6 mps 747 mmHg 65%
    15:00 +21°C° 0.3 mm 6 mps 747 mmHg 64%
    16:00 +20°C° 0.3 mm 7 mps 747 mmHg 64%
    17:00 +19°C° 0.1 mm 6 mps 747 mmHg 69%
    18:00 +16°C° 0.1 mm 5 mps 747 mmHg 75%
    19:00 +15°C° 0.1 mm 4 mps 747 mmHg 80%
    20:00 +14°C° 0 mm 4 mps 747 mmHg 83%
    21:00 +13°C° 0 mm 5 mps 747 mmHg 85%
    22:00 +12°C° 0 mm 5 mps 747 mmHg 87%
    23:00 +12°C° 0 mm 5 mps 748 mmHg 85%

    Day after tomorrow, 26 August, Monday

    Time Temperature Precipitation Wind Pressure Humidity
    00:00 +11°C° 0 mm 6 mps 748 mmHg 83%
    01:00 +11°C° 0 mm 7 mps 748 mmHg 81%
    02:00 +11°C° 0 mm 7 mps 748 mmHg 79%
    03:00 +11°C° 0 mm 7 mps 749 mmHg 76%
    04:00 +11°C° 0 mm 7 mps 749 mmHg 74%
    05:00 +10°C° 0 mm 7 mps 750 mmHg 74%
    06:00 +10°C° 0 mm 8 mps 750 mmHg 75%
    07:00 +9°C° 0 mm 8 mps 750 mmHg 75%
    08:00 +10°C° 0 mm 8 mps 751 mmHg 72%
    09:00 +10°C° 0 mm 8 mps 751 mmHg 69%
    10:00 +11°C° 0 mm 8 mps 751 mmHg 67%
    11:00 +12°C° 0 mm 8 mps 752 mmHg 64%
    12:00 +13°C° 0 mm 8 mps 752 mmHg 62%
    13:00 +15°C° 0 mm 7 mps 752 mmHg 60%
    14:00 +15°C° 0 mm 7 mps 752 mmHg 59%
    15:00 +15°C° 0 mm 7 mps 752 mmHg 58%
    16:00 +15°C° 0 mm 7 mps 752 mmHg 57%
    17:00 +14°C° 0 mm 5 mps 752 mmHg 62%
    18:00 +13°C° 0 mm 4 mps 752 mmHg 66%
    19:00 +12°C° 0 mm 3 mps 752 mmHg 71%
    20:00 +11°C° 0 mm 3 mps 752 mmHg 75%
    21:00 +10°C° 0 mm 3 mps 752 mmHg 78%
    22:00 +9°C° 0 mm 3 mps 752 mmHg 82%
    23:00 +9°C° 0 mm 2 mps 752 mmHg 84%

    27 August, Tuesday

    Time Temperature Precipitation Wind Pressure Humidity
    00:00 +8°C° 0 mm 2 mps 752 mmHg 87%
    01:00 +8°C° 0 mm 2 mps 751 mmHg 90%
    02:00 +8°C° 0 mm 3 mps 751 mmHg 90%
    03:00 +8°C° 0 mm 3 mps 751 mmHg 91%
    04:00 +8°C° 0 mm 3 mps 750 mmHg 92%
    05:00 +8°C° 0 mm 3 mps 750 mmHg 89%
    06:00 +8°C° 0 mm 4 mps 750 mmHg 87%
    07:00 +9°C° 0 mm 5 mps 749 mmHg 84%
    08:00 +12°C° 0 mm 5 mps 749 mmHg 79%
    09:00 +13°C° 0 mm 6 mps 748 mmHg 74%
    10:00 +15°C° 0 mm 7 mps 747 mmHg 69%
    11:00 +16°C° 0 mm 7 mps 747 mmHg 69%
    12:00 +16°C° 0 mm 7 mps 746 mmHg 69%
    13:00 +17°C° 0 mm 8 mps 745 mmHg 68%
    14:00 +17°C° 0.3 mm 7 mps 745 mmHg 71%
    15:00 +16°C° 0.3 mm 7 mps 744 mmHg 74%
    16:00 +16°C° 0.3 mm 7 mps 744 mmHg 76%
    17:00 +15°C° 0.6 mm 6 mps 743 mmHg 80%
    18:00 +15°C° 0.6 mm 6 mps 742 mmHg 84%
    19:00 +14°C° 0.6 mm 5 mps 742 mmHg 88%
    20:00 +13°C° 0.2 mm 5 mps 741 mmHg 90%
    21:00 +13°C° 0.2 mm 5 mps 740 mmHg 92%
    22:00 +12°C° 0.2 mm 4 mps 740 mmHg 93%
    23:00 +12°C° 2 mm 4 mps 739 mmHg 94%

    28 August, Wednesday

    Time Temperature Precipitation Wind Pressure Humidity
    00:00 +13°C° 2 mm 5 mps 739 mmHg 94%
    01:00 +13°C° 2 mm 5 mps 738 mmHg 95%
    02:00 +13°C° 1.8 mm 5 mps 737 mmHg 95%
    03:00 +12°C° 1.8 mm 4 mps 737 mmHg 95%
    04:00 +12°C° 1.8 mm 4 mps 736 mmHg 96%
    05:00 +12°C° 1.6 mm 4 mps 736 mmHg 96%
    06:00 +12°C° 1.6 mm 3 mps 735 mmHg 95%
    07:00 +12°C° 1.6 mm 3 mps 735 mmHg 95%
    08:00 +12°C° 0.5 mm 3 mps 735 mmHg 95%
    09:00 +13°C° 0.5 mm 2 mps 735 mmHg 95%
    10:00 +13°C° 0.5 mm 2 mps 735 mmHg 95%
    11:00 +13°C° 1.8 mm 2 mps 735 mmHg 95%
    12:00 +13°C° 1.8 mm 2 mps 735 mmHg 95%
    13:00 +13°C° 1.8 mm 2 mps 735 mmHg 95%
    14:00 +12°C° 0.6 mm 3 mps 735 mmHg 95%
    15:00 +12°C° 0.6 mm 3 mps 735 mmHg 94%
    16:00 +12°C° 0.6 mm 3 mps 735 mmHg 94%
    17:00 +11°C° 0.7 mm 4 mps 735 mmHg 94%
    18:00 +10°C° 0.7 mm 5 mps 735 mmHg 94%
    19:00 +9°C° 0.7 mm 6 mps 734 mmHg 95%
    20:00 +9°C° 0.4 mm 5 mps 734 mmHg 95%
    21:00 +9°C° 0.4 mm 5 mps 734 mmHg 95%
    22:00 +9°C° 0.4 mm 5 mps 734 mmHg 96%
    23:00 +9°C° 0.2 mm 5 mps 734 mmHg 96%

    29 August, Thursday

    Time Temperature Precipitation Wind Pressure Humidity
    00:00 +10°C° 0.2 mm 4 mps 735 mmHg 96%
    01:00 +10°C° 0.2 mm 4 mps 735 mmHg 96%
    02:00 +10°C° 0.1 mm 3 mps 735 mmHg 96%
    03:00 +9°C° 0.1 mm 3 mps 735 mmHg 96%
    04:00 +9°C° 0.1 mm 2 mps 735 mmHg 96%
    05:00 +9°C° 0.1 mm 2 mps 735 mmHg 96%
    06:00 +9°C° 0.1 mm 2 mps 735 mmHg 95%
    07:00 +9°C° 0.1 mm 3 mps 735 mmHg 95%
    08:00 +10°C° 0.1 mm 3 mps 735 mmHg 92%
    09:00 +11°C° 0.1 mm 4 mps 736 mmHg 89%
    10:00 +13°C° 0.1 mm 5 mps 736 mmHg 86%
    11:00 +14°C° 0 mm 5 mps 736 mmHg 81%
    12:00 +15°C° 0 mm 5 mps 737 mmHg 77%
    13:00 +16°C° 0 mm 5 mps 737 mmHg 72%
    14:00 +16°C° 0.1 mm 5 mps 737 mmHg 71%
    15:00 +17°C° 0.1 mm 5 mps 738 mmHg 69%
    16:00 +19°C° 0.1 mm 4 mps 738 mmHg 68%
    17:00 +16°C° 1 mm 5 mps 738 mmHg 74%
    18:00 +15°C° 1 mm 6 mps 739 mmHg 80%
    19:00 +14°C° 1 mm 7 mps 739 mmHg 86%
    20:00 +11°C° 0.2 mm 6 mps 739 mmHg 88%
    21:00 +10°C° 0.2 mm 6 mps 740 mmHg 90%
    22:00 +9°C° 0.2 mm 5 mps 740 mmHg 93%
    23:00 +9°C° 0 mm 5 mps 740 mmHg 92%
    Show more